This demonstration page uses our WeatherBlox Daily Observations layout. Learn more.

Left ArrowRight Arrow

Hourly Observations for May 30, 2019

Temp ( °F °C ) Dew Point ( °F °C ) Humidity (%) Winds ( mph kmh ) Pressure ( in mb ) Visibility ( mi km ) Precip ( " mm )
12:52 am 00:52 Cloudy 60 15.6 55 12.8 84 84 W 6 9 29.76 1008 10 16 0.00 0.00
1:52 am 01:52 Cloudy 60 15.6 54 12.2 80 80 W 7 11 29.75 1007 10 16 0.00 0.00
2:52 am 02:52 Cloudy 60 15.6 53 11.7 78 78 W 9 15 29.74 1007 10 16 0.00 0.00
3:52 am 03:52 Cloudy with Light Rain 59 15 54 12.2 83 83 WNW 8 13 29.74 1007 10 16 0.00 0.03
4:22 am 04:22 Cloudy with Light Rain 58 14.4 55 12.8 90 90 W 7 11 29.75 1008 8 13 0.00 0.03
4:52 am 04:52 Cloudy with Light Rain 58 14.4 55 12.8 90 90 WSW 3 6 29.74 1007 10 16 0.03 0.76
5:52 am 05:52 Cloudy 59 15 55 12.8 87 87 Calm 29.74 1007 10 16 0.00 0.03
6:52 am 06:52 Cloudy 59 15 55 12.8 87 87 Calm 29.76 1008 10 16 0.00 0.00
7:52 am 07:52 Cloudy 59 15 56 13.3 90 90 NW 8 13 29.78 1008 10 16 0.00 0.00
8:52 am 08:52 Mostly Cloudy 63 17.2 56 13.3 78 78 W 6 9 29.77 1008 10 16 0.01 0.25
9:52 am 09:52 Partly Cloudy 67 19.4 56 13.3 68 68 WNW 9 15 29.77 1008 10 16 0.00 0.00
10:52 am 10:52 Mostly Cloudy 68 20 57 13.9 68 68 NW 10 17 29.78 1009 10 16 0.00 0.00
11:52 am 11:52 Mostly Cloudy 70 21.1 57 13.9 64 64 VRB 6 9 29.80 1009 10 16 0.00 0.00
12:52 pm 12:52 Mostly Cloudy 70 21.1 58 14.4 66 66 NNE 10 17 29.81 1009 10 16 0.00 0.00
1:52 pm 13:52 Mostly Cloudy 73 22.8 60 15.6 64 64 NNW 10 17 29.81 1010 10 16 0.00 0.00
2:52 pm 14:52 Mostly Cloudy 75 23.9 61 16.1 62 62 NW 12 19 29.80 1009 10 16 0.00 0.00
3:10 pm 15:10 Partly Cloudy with Thunderstorms 72 22.2 60 15.6 66 66 NNW 9 15 29.79 1009 10 16 0.00 0.00
3:52 pm 15:52 Mostly Cloudy with Thunderstorms 75 23.9 59 15 58 58 NNE 15 24 29.81 1009 10 16 0.00 0.00
4:12 pm 16:12 Mostly Cloudy with Nearby Thunderstorms 71 21.7 61 16.1 71 71 Calm 29.80 1009 10 16 0.00 0.00
4:28 pm 16:28 Mostly Cloudy 74 23.3 59 15 60 60 VRB 3 6 29.79 1009 10 16 0.00 0.00
4:52 pm 16:52 Mostly Cloudy with Nearby Thunderstorms 75 23.9 60 15.6 60 60 NW 8 13 29.82 1010 10 16 0.00 0.03
5:20 pm 17:20 Mostly Cloudy 77 25 58 14.4 52 52 NW 5 7 29.79 1009 10 16 0.00 0.00
5:52 pm 17:52 Mostly Cloudy 73 22.8 60 15.6 64 64 SW 6 9 29.82 1010 10 16 0.00 0.00
6:16 pm 18:16 Cloudy with Nearby Thunderstorms 73 22.8 54 12.2 51 51 NNW 10 17 29.80 1009 10 16 0.00 0.00
6:34 pm 18:34 Cloudy 71 21.7 60 15.6 68 68 ENE 8 13 29.82 1010 10 16 0.00 0.00
6:52 pm 18:52 Cloudy 70 21.1 61 16.1 73 73 ENE 5 7 29.84 1010 10 16 0.00 0.00
7:52 pm 19:52 Mostly Cloudy 70 21.1 61 16.1 73 73 SW 3 6 29.85 1011 10 16 0.00 0.00
8:52 pm 20:52 Cloudy 68 20 62 16.7 81 81 Calm 29.85 1011 10 16 0.00 0.00
9:52 pm 21:52 Mostly Cloudy 66 18.9 61 16.1 84 84 Calm 29.88 1012 10 16 0.00 0.00
10:52 pm 22:52 Mostly Cloudy 64 17.8 61 16.1 90 90 Calm 29.90 1013 10 16 0.00 0.00
11:52 pm 23:52 Mostly Cloudy 62 16.7 60 15.6 93 93 Calm 29.90 1013 10 16 0.00 0.00

Powered by AerisWeather